Regional Weather Roundup
Issued by NWS

Home | Current Version | Previous Version | Graphics & Text | Print | Product List | Glossary On
Versions: 1 2 3 4 5 6 7 8 9 10 11 12 13 14 15 16 17 18 19 20 21 22 23 24 25 26 27 28 29 30 31 32 33 34 35 36 37 38 39 40 41 42 43 44 45 46 47 48 49 50
000
ASUS43 KFSD 010802
RWRSD

WEATHER ROUNDUP FOR SOUTH DAKOTA
NATIONAL WEATHER SERVICE SIOUX FALLS SD
200 AM CST SUN FEB 01 2015

NOTE: "FAIR" INDICATES FEW OR NO CLOUDS BELOW 12,000 FEET WITH NO
SIGNIFICANT WEATHER AND/OR OBSTRUCTIONS TO VISIBILITY.


SDZ001>005-009-010-012>017-010900-
NORTHWEST AND NORTH CENTRAL SOUTH DAKOTA

CITY           SKY/WX    TMP DP  RH WIND       PRES   REMARKS
BUFFALO          N/A      2  -4  76 N10       30.21R WCI -14
FAITH            N/A      2  -3  80 N15       30.27R WCI -17
MOBRIDGE       LGT SNOW   2  -5  72 N15       30.32R WCI -17
$$

SDZ012>016-024>037-041>051-057-063-072>074-010900-
SOUTHWEST AND SOUTH CENTRAL SOUTH DAKOTA

CITY           SKY/WX    TMP DP  RH WIND       PRES   REMARKS
RAPID CTY ARPT LGT SNOW   7   4  87 N17       30.19R FOG     WCI -12
PIERRE         LGT SNOW   6   1  80 N18       30.27R VSB 1   WCI -13
CUSTER         CLOUDY    14   9  80 CALM      29.97R
ELLSWORTH AFB  MIX PCPN   7   3  85 N10       30.20R WCI  -8
PHILIP         LGT SNOW   8   2  76 N14       30.26R WCI  -8
PINE RIDGE     FLURRIES  11   5  77 N9        30.14S WCI  -2
WINNER         LGT SNOW   9   4  80 N15       30.18R VSB 1   WCI  -8
$$

SDZ004>011-016>023-039-040-010900-
NORTHEAST SOUTH DAKOTA

CITY           SKY/WX    TMP DP  RH WIND       PRES   REMARKS
ABERDEEN       LGT SNOW   1  -6  72 N18       30.34F WCI -20
WATERTOWN      LGT SNOW   4  -1  80 N22G31    30.18S WCI -18
SISSETON         N/A      1  -6  72 N22       30.33S WCI -21
$$

SDZ017-020-022-023-036>040-048>070-010900-
SOUTHEAST SOUTH DAKOTA

CITY           SKY/WX    TMP DP  RH WIND       PRES   REMARKS
SIOUX FALLS    LGT SNOW  20  16  84 NE21      30.04F FOG     WCI   4
HURON          LGT SNOW   6   1  80 N23G30    30.23S WCI -15
MITCHELL       LGT SNOW  13   9  84 N24G31    30.17R FOG     WCI  -7
YANKTON        CLOUDY    25  19  80 N20       30.03S WCI  11
$$

ABBREVIATIONS USED IN REMARKS
   TC - TEMPERATURE IN CELSIUS
  WCI - WIND CHILL INDEX
   HX - HEAT INDEX
  VSB - VISIBILITY



USA.gov is the U.S. government's official web portal to all federal, state and local government web resources and services.